WXForecasting.com
Enter your "Place, State", US Zip Code or ICAO:       Weather Directory
MI Forecast MI Discussion MI Public Info MI Climate Data MI Fire Weather MI Summary MI Hourly
Michigan Hourly Weather Roundup:
000
ASUS43 KDTX 152310
RWRMI
MICHIGAN HOURLY REGIONAL WEATHER ROUNDUP
NATIONAL WEATHER SERVICE DETROIT/PONTIAC MI
600 PM EST FRI DEC 15 2017

NOTE: "FAIR" INDICATES FEW OR NO CLOUDS BELOW 12,000 FEET WITH NO
SIGNIFICANT WEATHER AND/OR OBSTRUCTION TO VISIBILITY.

MIZ047>049-052>055-059>063-066>070-074>076-081>083-160000-
SOUTHEAST LOWER MICHIGAN

CITY           SKY/WX    TMP DP  RH WIND       PRES   REMARKS
ALMA           FLURRIES  23  19  83 W8        29.83R WCI  14
ANN ARBOR      CLOUDY    25  17  72 SW13      29.85R WCI  14
BAD AXE        CLOUDY    22  15  73 W10       29.77R WCI  11
CARO           PTCLDY    22  12  63 W10G20    29.79R WCI  12
DETROIT CITY   LGT SNOW  25  20  81 W12G22    29.84R WCI  14
DETROIT        FLURRIES  29  18  63 SW16      29.86R WCI  17
FLINT          LGT SNOW  23  17  78 W12       29.83R WCI  12
GROSSE ILE     CLOUDY    27  17  66 W10       29.86R WCI  17
HILLSDALE      MOCLDY    27  14  59 W9        29.85R WCI  17
HOWELL         SNOW      24  22  94 W9        29.83R VSB 1/2 WCI  14

CITY           SKY/WX    TMP DP  RH WIND       PRES   REMARKS
JACKSON        CLOUDY    26  15  63 SW9       29.85R WCI  17
LAMBERTVILLE   CLOUDY    26  17  68 W9        29.90R WCI  17
LANSING        CLOUDY    24  20  84 W10       29.85R FOG     WCI  14
LAPEER         FLURRIES  23  17  77 W9        29.81R WCI  13
MASON          CLOUDY    26  16  64 W7        29.84R WCI  19
MONROE         CLOUDY    26  16  65 W16       29.87R WCI  14
MT. CLEMENS    CLOUDY    25  24  94 W6        29.80R WCI  18
PONTIAC        CLOUDY    24  19  81 W17G26    29.80R WCI  11
PORT HOPE        N/A     24  14  65 W10       29.72R WCI  14
PORT HURON     FLURRIES  25  18  74 CALM      29.81R
TRI CITIES     CLOUDY    23  14  68 W14       29.81R WCI  11
MIDLAND        CLOUDY    25  14  64 W9        29.81R WCI  15
TROY           CLOUDY    27  20  77 W9        29.84R WCI  17
SAGINAW HB     CLOUDY    23  14  68 W16G23    29.81R WCI  10
$$
MIZ043>046-050>051-056>058-064>065-071>073-077>080-160000-
SOUTHWEST LOWER MICHIGAN

CITY           SKY/WX    TMP DP  RH WIND       PRES   REMARKS
BATTLE CREEK   CLOUDY    27  16  63 W10       29.86R WCI  17
BENTON HARBOR  CLOUDY    33  24  69 W17       29.89S WCI  22
BIG RAPIDS     LGT SNOW  20  17  85 W3        29.80R
COLDWATER      CLOUDY    27  17  66 W10       29.88R WCI  17
HOLLAND        CLOUDY    30  18  60 W15G23    29.86S WCI  19
GRAND RAPIDS   FLURRIES  26  16  65 W15G26    29.84R WCI  14
IONIA          MOCLDY    25  18  74 W8        29.83R WCI  16
KALAMAZOO      FLURRIES  28  18  66 W7        29.87R WCI  21
LUDINGTON      CLOUDY    24  13  64 W8        29.83R WCI  15
MARSHALL       MOCLDY    25  15  64 W9        29.85R WCI  15
MOUNT PLEASANT FLURRIES  24  15  69 W9        29.81R WCI  14
MUSKEGON       CLOUDY    28  16  60 W16G26    29.85S WCI  16
SOUTH HAVEN    CLOUDY    33  23  67 W14       29.88R WCI  23
$$
MIZ016>042-160000-
NORTHERN LOWER MICHIGAN

CITY           SKY/WX    TMP DP  RH WIND       PRES   REMARKS
ALPENA         CLOUDY    24  18  77 W8        29.70R WCI  15
BEAVER ISLAND  CLOUDY    24  14  65 NW10G20   29.73R WCI  14
BELLAIRE       LGT SNOW  23  22  96 W7G18     29.76R VSB 1   WCI  15
CADILLAC       LGT SNOW  19  16  88 W9        29.74R WCI   8
CHARLEVOIX     CLOUDY    26  13  59 W13G23    29.76R HAZE    WCI  14
FRANKFORT      CLOUDY    25  14  63 W12G17    29.79S WCI  14
GAYLORD        CLOUDY    19  14  81 W5        29.68R WCI  12
GRAYLING       FLURRIES  19  14  81 SW10      29.72R WCI   8
HARBOR SPRINGS LGT SNOW  22  19  85 NW9G16    29.72R WCI  12
HOUGHTON LAKE  CLOUDY    20  14  77 W14G22    29.74R WCI   7
MANISTEE       FLURRIES  23  14  68 W16       29.81R WCI  10
OSCODA         CLOUDY    22  15  71 W14       29.72R WCI  10
PELLSTON       FLURRIES  23  14  68 NW16      29.71R WCI  10
ROGERS CITY    LGT SNOW  24  20  85 W9G18     29.69R WCI  14
TRAVERSE CITY  LGT SNOW  23  17  78 W8        29.77R WCI  14
$$
MIZ007>008-015-160000-
EASTERN UPPER MICHIGAN

CITY           SKY/WX    TMP DP  RH WIND       PRES   REMARKS
KINROSS        FLURRIES  19  16  88 W9        29.68R WCI   8
MACKINAC ISLAN MOCLDY    24  16  73 W18       29.69R WCI   9
NEWBERRY       LGT SNOW  17  17  97 W6        29.70R WCI   9
S. S. MARIE    LGT SNOW  21  17  84 N7        29.66S FOG     WCI  12
MUNISING         N/A     22  16  78 NW8       29.75R WCI  12
$$
MIZ004>006-011>014-085-160000-
CENTRAL UPPER MICHIGAN

CITY           SKY/WX    TMP DP  RH WIND       PRES   REMARKS
MANISTIQUE     CLEAR     16  -1  47 NW6       29.75R WCI   8
ESCANABA       CLEAR     15   7  70 W7        29.78R WCI   5
MENOMINEE      PTCLDY    15   7  70 W3        29.83R
SAWYER-GWINN   MOCLDY    12   7  79 NW7       29.73R WCI   2
$$
MIZ001>003-009>011-084-160000-
WESTERN UPPER MICHIGAN

CITY           SKY/WX    TMP DP  RH WIND       PRES   REMARKS
IRON MOUNTAIN  PTCLDY    15   7  70 W5        29.74R WCI   8
HOUGHTON       SNOW      14   8  77 NW3       29.74S VSB 1/2
COPPER HARBOR    N/A     17   8  67 N15G21    29.78R WCI   2
$$

ABBREVIATIONS USED IN REMARKS
   TC - TEMPERATURE IN CELSIUS
  WCI - WIND CHILL INDEX
   HX - HEAT INDEX
  VSB - VISIBILITY


Powered by HAMweather
Copyright 2003 HAMweather, LLC, all rights reserved.